User: anonymous   Login
Location: Unspecified
(0.0000°N, 0.0000°E)
Time: 06:49:02
(UTC+00:00)
Language:

HUMSAT D - Orbit

View from above orbital plane
View from above orbital plane
View from above satellite
View from above satellite

Ground track
Ground track

The orbit data is extracted from the following two-line orbital elements,

1 39433U 13066T   19083.10770455  .00000228  00000-0  27646-4 0  9999
2 39433  97.5653 134.1022 0029763 227.4458 132.4249 14.92111295290169
Epoch (UTC): 24 March 2019 02:35:05
Eccentricity: 0.0029763
inclination: 97.5653°
perigee height: 570 km
apogee height: 612 km
right ascension of ascending node: 134.1022°
argument of perigee: 227.4458°
revolutions per day: 14.92111295
mean anomaly at epoch: 132.4249°
orbit number at epoch: 29016

The dashed part of the orbit path shows where the satellite is in the earth's shadow,  

DLR